Back to catalog

CZ-6A DEB

AliveSSO
NORAD 54577·DEBRIS·🇨🇳 China

Launched Nov 11, 2022 from Taiyuan Satellite Launch Center

Loading…

Next Passes (next 24 hours)

TLE

FreshSource: Space-Track

Epoch: Sep 14, 2026, 09:12 UTC

1 54577U 22151MD  26257.38359376  .00006642  00000-0  10554-2 0  9990
2 54577  98.4495 296.6455 0057590 340.2578  19.6398 14.71327331202766

Track CZ-6A DEB in real time with AllMySat

Download on the App Store